Beach, ND

1:51 PM MST on February 12, 2016 (GMT -0700)
Beach

Weather History for K20U - February, 2013

Change the Weather History Date:

Sunday, February 3, 2013

  Actual Average (KGDV) Record (KGDV)
Temperature  
Mean Temperature 25 °F -  
Max Temperature 35 °F 28 °F 57 °F (2005)
Min Temperature 15 °F 11 °F -20 °F (2007)
Degree Days  
Heating Degree Days 40    
Moisture  
Dew Point 22 °F    
Average Humidity 83    
Maximum Humidity 100    
Minimum Humidity 69    
Precipitation  
Precipitation 0.00 in - - ()
Sea Level Pressure  
Sea Level Pressure 29.86 in    
Wind  
Wind Speed 12 mph (West)    
Max Wind Speed 18 mph    
Max Gust Speed 24 mph    
Visibility 10 miles    
Events      
Averages and records for this station are not official NWS values.
T = Trace of Precipitation, MM = Missing Value Source: NWS Daily Summary

Daily Weather History Graph

Daily Weather History Graph

Search for Another Location

Airport or City:

Trip Planner

Search our weather history database for the weather conditions in past years. The results will help you decide how hot, cold, wet, or windy it might be!

Date:

Astronomy

Feb. 03, 2013 Rise Set
Actual Time 7:17 AM MST 5:02 PM MST
Civil Twilight 6:45 AM MST 5:34 PM MST
Nautical Twilight 6:09 AM MST 6:11 PM MST
Astronomical Twilight 5:33 AM MST 6:46 PM MST
Moon 12:49 AM MST (2/3) 10:38 AM MST (2/3)
Length of Visible Light 10h 49m
Length of Day
9h 44m
Waning Gibbous, 48% of the Moon is Illuminated
Feb 3
Waning Gibbous
Feb 10
New
Feb 17
First Quarter
Feb 25
Full
Mar 4
Last Quarter

Hourly Weather History & Observations

Time (MST) Temp. Windchill Dew Point Humidity Pressure Visibility Wind Dir Wind Speed Gust Speed Precip Events Conditions
12:15 AM 24.8 °F 19.1 °F 23.0 °F 93% 30.04 in 10.0 mi South 4.6 mph - N/A   Overcast
12:35 AM 21.2 °F 13.6 °F 19.4 °F 93% 30.02 in 10.0 mi South 5.8 mph - N/A   Overcast
12:55 AM 23.0 °F 14.7 °F 23.0 °F 100% 30.00 in 10.0 mi SSW 6.9 mph - N/A   Overcast
1:15 AM 23.0 °F 13.1 °F 19.4 °F 86% 29.99 in 10.0 mi SSW 9.2 mph - N/A   Scattered Clouds
1:35 AM 21.2 °F 10.1 °F 17.6 °F 86% 29.98 in 10.0 mi SW 10.4 mph - N/A   Clear
1:55 AM 24.8 °F 14.0 °F 19.4 °F 80% 29.97 in 10.0 mi SW 11.5 mph - N/A   Clear
2:15 AM 24.8 °F 13.4 °F 19.4 °F 80% 29.96 in 10.0 mi WSW 12.7 mph - N/A   Clear
2:55 AM 28.4 °F 17.0 °F 23.0 °F 80% 29.93 in 10.0 mi WSW 15.0 mph - N/A   Clear
3:15 AM 28.4 °F 16.6 °F 23.0 °F 80% 29.93 in 10.0 mi WSW 16.1 mph 21.9 mph N/A   Clear
3:35 AM 28.4 °F 16.2 °F 23.0 °F 80% 29.91 in 10.0 mi WSW 17.3 mph 23.0 mph N/A   Clear
3:55 AM 28.4 °F 16.2 °F 23.0 °F 80% 29.91 in 10.0 mi WSW 17.3 mph - N/A   Clear
4:15 AM 28.4 °F 17.0 °F 24.8 °F 86% 29.90 in 10.0 mi WSW 15.0 mph - N/A   Clear
4:35 AM 28.4 °F 16.2 °F 23.0 °F 80% 29.89 in 10.0 mi WSW 17.3 mph - N/A   Clear
4:55 AM 28.4 °F 16.2 °F 23.0 °F 80% 29.89 in 10.0 mi WSW 17.3 mph - N/A   Clear
5:15 AM 26.6 °F 14.7 °F 23.0 °F 86% 29.88 in 10.0 mi WSW 15.0 mph - N/A   Clear
5:35 AM 28.4 °F 17.0 °F 23.0 °F 80% 29.88 in 10.0 mi WSW 15.0 mph - N/A   Clear
5:55 AM 28.4 °F 17.5 °F 23.0 °F 80% 29.87 in 10.0 mi WSW 13.8 mph - N/A   Clear
6:15 AM 26.6 °F 14.7 °F 23.0 °F 86% 29.86 in 10.0 mi WSW 15.0 mph - N/A   Clear
6:35 AM 28.4 °F 17.0 °F 23.0 °F 80% 29.85 in 10.0 mi WSW 15.0 mph - N/A   Clear
6:55 AM 28.4 °F 17.0 °F 23.0 °F 80% 29.85 in 10.0 mi WSW 15.0 mph - N/A   Clear
7:15 AM 28.4 °F 17.0 °F 23.0 °F 80% 29.84 in 10.0 mi WSW 15.0 mph - N/A   Clear
7:35 AM 26.6 °F 15.7 °F 21.2 °F 80% 29.83 in 10.0 mi WSW 12.7 mph - N/A   Clear
7:55 AM 26.6 °F 15.7 °F 21.2 °F 80% 29.83 in 10.0 mi WSW 12.7 mph - N/A   Clear
8:15 AM 28.4 °F 17.5 °F 21.2 °F 74% 29.82 in 10.0 mi WSW 13.8 mph - N/A   Clear
8:35 AM 28.4 °F 17.0 °F 23.0 °F 80% 29.82 in 10.0 mi WSW 15.0 mph - N/A   Clear
8:55 AM 32.0 °F 22.1 °F 23.0 °F 69% 29.81 in 10.0 mi WSW 13.8 mph - N/A   Clear
9:15 AM 32.0 °F 22.1 °F 23.0 °F 69% 29.80 in 10.0 mi WSW 13.8 mph - N/A   Clear
9:35 AM 32.0 °F 21.6 °F 23.0 °F 69% 29.80 in 10.0 mi WSW 15.0 mph - N/A   Clear
9:55 AM 32.0 °F 23.0 °F 24.8 °F 75% 29.79 in 10.0 mi WSW 11.5 mph - N/A   Clear
10:15 AM 32.0 °F 21.6 °F 24.8 °F 75% 29.79 in 10.0 mi WSW 15.0 mph - N/A   Clear
10:35 AM 32.0 °F 21.6 °F 24.8 °F 75% 29.78 in 10.0 mi WSW 15.0 mph - N/A   Clear
10:55 AM 32.0 °F 20.5 °F 24.8 °F 75% 29.78 in 10.0 mi WSW 18.4 mph 24.2 mph N/A   Clear
11:15 AM 32.0 °F 21.2 °F 24.8 °F 75% 29.78 in 10.0 mi WSW 16.1 mph - N/A   Clear
11:35 AM 33.8 °F 23.5 °F 24.8 °F 70% 29.77 in 10.0 mi WSW 16.1 mph 20.7 mph N/A   Clear
11:55 AM 33.8 °F 23.9 °F 24.8 °F 70% 29.77 in 10.0 mi West 15.0 mph - N/A   Clear
12:15 PM 33.8 °F 23.2 °F 26.6 °F 75% 29.77 in 10.0 mi West 17.3 mph - N/A   Mostly Cloudy
12:35 PM 35.6 °F 25.9 °F 26.6 °F 70% 29.77 in 10.0 mi West 16.1 mph - N/A   Partly Cloudy
12:55 PM 35.6 °F 25.9 °F 26.6 °F 70% 29.76 in 10.0 mi West 16.1 mph - N/A   Clear
1:15 PM 35.6 °F 26.2 °F 26.6 °F 70% 29.77 in 10.0 mi West 15.0 mph - N/A   Partly Cloudy
1:35 PM 35.6 °F 26.6 °F 26.6 °F 70% 29.77 in 10.0 mi West 13.8 mph - N/A   Partly Cloudy
1:55 PM 35.6 °F 27.1 °F 26.6 °F 70% 29.77 in 10.0 mi West 12.7 mph - N/A   Scattered Clouds
2:15 PM 35.6 °F 25.5 °F 26.6 °F 70% 29.77 in 10.0 mi WNW 17.3 mph 21.9 mph N/A   Scattered Clouds
2:35 PM 35.6 °F 25.2 °F 26.6 °F 70% 29.78 in 10.0 mi WNW 18.4 mph - N/A   Partly Cloudy
2:55 PM 35.6 °F 26.2 °F 26.6 °F 70% 29.79 in 10.0 mi NW 15.0 mph 21.9 mph N/A   Partly Cloudy
3:15 PM 33.8 °F 24.3 °F 26.6 °F 75% 29.80 in 10.0 mi NW 13.8 mph - N/A   Partly Cloudy
3:35 PM 32.0 °F 22.5 °F 26.6 °F 80% 29.80 in 10.0 mi NNW 12.7 mph - N/A   Clear
3:55 PM 30.2 °F 19.8 °F 24.8 °F 80% 29.81 in 10.0 mi NNW 13.8 mph - N/A   Clear
4:15 PM 28.4 °F 19.7 °F 24.8 °F 86% 29.82 in 10.0 mi NNW 9.2 mph - N/A   Clear
4:35 PM 26.6 °F 16.2 °F 23.0 °F 86% 29.82 in 10.0 mi NNW 11.5 mph - N/A   Partly Cloudy
4:55 PM 24.8 °F 13.4 °F 23.0 °F 93% 29.83 in 10.0 mi North 12.7 mph - N/A   Clear
5:15 PM 23.0 °F 11.1 °F 19.4 °F 86% 29.84 in 10.0 mi NNW 12.7 mph - N/A   Clear
5:35 PM 19.4 °F 7.2 °F 19.4 °F 100% 29.85 in 10.0 mi NNW 11.5 mph - N/A   Clear
5:55 PM 19.4 °F 7.9 °F 17.6 °F 93% 29.86 in 10.0 mi NW 10.4 mph - N/A   Clear
6:15 PM 17.6 °F 5.7 °F 17.6 °F 100% 29.86 in 10.0 mi NNW 10.4 mph - N/A   Clear
6:35 PM 17.6 °F 6.4 °F 15.8 °F 93% 29.87 in 10.0 mi NNW 9.2 mph - N/A   Clear
6:55 PM 15.8 °F 3.4 °F 15.8 °F 100% 29.88 in 10.0 mi NNW 10.4 mph - N/A   Clear
7:15 PM 15.8 °F 5.1 °F 14.0 °F 93% 29.89 in 10.0 mi NNW 8.1 mph - N/A   Partly Cloudy
7:35 PM 15.8 °F 7.2 °F 14.0 °F 93% 29.89 in 10.0 mi WNW 5.8 mph - N/A   Mostly Cloudy
7:55 PM 17.6 °F 9.3 °F 15.8 °F 93% 29.90 in 10.0 mi NW 5.8 mph - N/A   Overcast
8:15 PM 19.4 °F 7.9 °F 17.6 °F 93% 29.90 in 10.0 mi NW 10.4 mph - N/A   Overcast
8:35 PM 19.4 °F 8.6 °F 19.4 °F 100% 29.90 in 10.0 mi NW 9.2 mph - N/A   Overcast
8:55 PM 19.4 °F 8.6 °F 19.4 °F 100% 29.90 in 10.0 mi WNW 9.2 mph - N/A   Overcast
9:15 PM 19.4 °F 9.5 °F 19.4 °F 100% 29.90 in 10.0 mi West 8.1 mph - N/A   Overcast
9:35 PM 21.2 °F 9.5 °F 19.4 °F 93% 29.90 in 10.0 mi West 11.5 mph - N/A   Overcast
9:55 PM 23.0 °F 12.4 °F 21.2 °F 93% 29.90 in 10.0 mi WNW 10.4 mph - N/A   Overcast
10:15 PM 23.0 °F 12.4 °F 21.2 °F 93% 29.89 in 10.0 mi WNW 10.4 mph - N/A   Overcast
10:35 PM 23.0 °F 13.1 °F 21.2 °F 93% 29.89 in 10.0 mi West 9.2 mph - N/A   Overcast
10:55 PM 24.8 °F 16.1 °F 23.0 °F 93% 29.89 in 10.0 mi WNW 8.1 mph - N/A   Overcast
11:15 PM 24.8 °F 16.9 °F 23.0 °F 93% 29.89 in 10.0 mi NW 6.9 mph - N/A   Overcast
11:35 PM 24.8 °F 16.9 °F 23.0 °F 93% 29.89 in 10.0 mi NW 6.9 mph - N/A   Overcast
11:55 PM 24.8 °F 16.9 °F 23.0 °F 93% 29.89 in 10.0 mi NW 6.9 mph - N/A   Overcast